GW5111 Weather Reports


time (UTC)temp
F
wind
direction
speed
knots
gust
knots
rain 1hr
in
rain 24hr
in
rain mn
in
humidity
%
barometer
mb
20260508121841 46 243 0.9 1.7 0.00 0.00 0.00 61 1017.3
20260508121340 46 271 1.7 2.6 0.00 0.00 0.00 60 1017.3
20260508120837 46 275 0.9 2.6 0.00 0.00 0.00 62 1017.2
20260508120335 45 280 2.6 2.6 0.00 0.00 0.00 60 1017.2
20260508115832 45 263 1.7 2.6 0.00 0.00 0.00 61 1017.0
20260508115329 45 276 0.9 2.6 0.00 0.00 0.00 62 1017.0
20260508114826 44 265 0.9 1.7 0.00 0.00 0.00 62 1017.0
20260508114323 44 259 1.7 1.7 0.00 0.00 0.00 63 1017.0
20260508113819 44 276 1.7 2.6 0.00 0.00 0.00 62 1016.9
20260508113318 43 274 0.9 1.7 0.00 0.00 0.00 63 1017.0
20260508112814 43 268 0.9 1.7 0.00 0.00 0.00 64 1016.9
20260508112311 42 274 0.9 1.7 0.00 0.00 0.00 64 1017.0
20260508111807 42 267 0.9 1.7 0.00 0.00 0.00 64 1016.8
20260508111305 42 278 0.9 1.7 0.00 0.00 0.00 64 1016.8
20260508110802 41 271 0.9 1.7 0.00 0.00 0.00 65 1016.6
20260508110300 41 302 0.0 0.0 0.00 0.00 0.00 66 1016.6
20260508105759 40 297 0.9 0.9 0.00 0.00 0.00 66 1016.8
20260508105256 40 281 0.9 0.9 0.00 0.00 0.00 67 1016.6
20260508104753 40 289 0.9 1.7 0.00 0.00 0.00 68 1016.4
20260508104250 39 285 0.9 0.9 0.00 0.00 0.00 69 1016.5
20260508103747 39 287 0.9 0.9 0.00 0.00 0.00 70 1016.5
20260508103244 39 293 0.9 0.9 0.00 0.00 0.00 70 1016.5
20260508102741 39 307 0.9 1.7 0.00 0.00 0.00 70 1016.4
20260508102239 38 311 0.9 1.7 0.00 0.00 0.00 71 1016.3
20260508101736 38 312 1.7 1.7 0.00 0.00 0.00 71 1016.4
20260508101234 38 315 1.7 1.7 0.00 0.00 0.00 71 1016.2
20260508100732 38 312 1.7 1.7 0.00 0.00 0.00 72 1016.3
20260508100229 38 326 1.7 2.6 0.00 0.00 0.00 72 1016.4
20260508095725 38 305 1.7 1.7 0.00 0.00 0.00 72 1016.1
20260508095223 38 305 1.7 1.7 0.00 0.00 0.00 71 1016.1
20260508094719 37 304 1.7 1.7 0.00 0.00 0.00 71 1016.1
20260508094216 38 296 1.7 2.6 0.00 0.00 0.00 71 1016.1
20260508093713 39 261 0.9 1.7 0.00 0.00 0.00 67 1016.2
20260508093211 40 323 0.9 0.9 0.00 0.00 0.00 65 1016.2
20260508092708 40 327 1.7 1.7 0.00 0.00 0.00 65 1015.9
20260508092206 40 335 0.9 1.7 0.00 0.00 0.00 65 1015.8
20260508091703 40 337 0.9 1.7 0.00 0.00 0.00 66 1016.1
20260508091200 40 339 1.7 1.7 0.00 0.00 0.00 67 1015.9
20260508090658 40 349 2.6 2.6 0.00 0.00 0.00 66 1015.8
20260508090155 40 349 1.7 2.6 0.00 0.00 0.00 66 1015.7
20260508085651 39 345 1.7 2.6 0.00 0.00 0.00 67 1015.6
20260508085149 39 347 1.7 1.7 0.00 0.00 0.00 68 1015.7
20260508084645 39 348 1.7 2.6 0.00 0.00 0.00 68 1015.6
20260508084142 39 21 0.9 1.7 0.00 0.00 0.00 69 1015.6
20260508083640 39 20 0.9 1.7 0.00 0.00 0.00 69 1015.6
20260508083137 39 26 0.0 0.9 0.00 0.00 0.00 70 1015.6
20260508082632 39 29 0.9 0.9 0.00 0.00 0.00 71 1015.6
20260508082130 38 25 1.7 1.7 0.00 0.00 0.00 71 1015.6
20260508081627 38 30 1.7 1.7 0.00 0.00 0.00 72 1015.4
20260508081123 38 36 0.9 2.6 0.00 0.00 0.00 72 1015.5
20260508080621 38 29 1.7 1.7 0.00 0.00 0.00 72 1015.6
20260508080119 38 25 1.7 1.7 0.00 0.00 0.00 73 1015.5
20260508075615 38 28 0.9 1.7 0.00 0.00 0.00 72 1015.4
20260508075112 38 36 1.7 1.7 0.00 0.00 0.00 73 1015.6
20260508074610 38 39 1.7 1.7 0.00 0.00 0.00 72 1015.6
20260508074107 38 51 1.7 2.6 0.00 0.00 0.00 72 1015.4
20260508073604 38 27 1.7 1.7 0.00 0.00 0.00 72 1015.3
20260508073102 38 24 1.7 1.7 0.00 0.00 0.00 73 1015.4
20260508072556 38 22 0.9 1.7 0.00 0.00 0.00 73 1015.4
20260508072054 39 35 1.7 2.6 0.00 0.00 0.00 73 1015.6
20260508071552 39 35 1.7 2.6 0.00 0.00 0.00 73 1015.5
20260508071050 39 47 0.9 1.7 0.00 0.00 0.00 73 1015.4
20260508070547 39 50 1.7 2.6 0.00 0.00 0.00 73 1015.4
20260508070045 39 30 0.9 2.6 0.00 0.00 0.00 73 1015.4
20260508065543 39 29 1.7 3.5 0.00 0.00 0.00 73 1015.5
20260508065041 39 33 1.7 2.6 0.00 0.00 0.00 73 1015.5
20260508064538 39 71 1.7 2.6 0.00 0.00 0.00 73 1015.5
20260508064036 39 42 1.7 2.6 0.00 0.00 0.00 74 1015.5
20260508063533 39 31 1.7 3.5 0.00 0.00 0.00 73 1015.5
20260508063031 39 12 2.6 5.2 0.00 0.00 0.00 73 1015.6
20260508062528 39 20 1.7 2.6 0.00 0.00 0.00 74 1015.7
20260508062024 39 37 2.6 3.5 0.00 0.00 0.00 74 1015.7
20260508061523 39 22 1.7 2.6 0.00 0.00 0.00 74 1015.7
20260508061019 39 3 1.7 2.6 0.00 0.00 0.00 73 1015.7
20260508060516 39 342 1.7 3.5 0.00 0.00 0.00 74 1015.7
20260508060014 39 7 1.7 5.2 0.00 0.00 0.00 74 1015.7
20260508055509 39 350 1.7 2.6 0.00 0.00 0.00 74 1015.7
20260508055006 39 12 1.7 2.6 0.00 0.00 0.00 73 1015.7
20260508054502 39 352 3.5 5.2 0.00 0.00 0.00 73 1015.7
20260508053959 40 353 1.7 3.5 0.00 0.00 0.00 72 1015.8
20260508053456 40 14 2.6 5.2 0.00 0.00 0.00 72 1015.7
20260508052954 40 358 2.6 2.6 0.00 0.00 0.00 72 1015.6
20260508052451 40 350 2.6 2.6 0.00 0.00 0.00 72 1015.5
20260508051948 40 22 2.6 5.2 0.00 0.00 0.00 71 1015.5
20260508051443 41 1 3.5 5.2 0.00 0.00 0.00 70 1015.4
20260508050940 41 40 3.5 6.1 0.00 0.00 0.00 70 1015.4
20260508050436 40 13 2.6 3.5 0.00 0.00 0.00 71 1015.3
20260508045933 41 32 1.7 3.5 0.00 0.00 0.00 71 1015.3
20260508045431 40 34 2.6 3.5 0.00 0.00 0.00 71 1015.4
20260508044928 40 32 1.7 5.2 0.00 0.00 0.00 71 1015.1
20260508044425 41 2 3.5 3.5 0.00 0.00 0.00 71 1015.3
20260508043920 41 357 3.5 3.5 0.00 0.00 0.00 71 1015.2
20260508043418 41 20 2.6 5.2 0.00 0.00 0.00 70 1015.3
20260508042914 41 344 3.5 6.1 0.00 0.00 0.00 70 1015.3
20260508042412 42 9 4.3 7.0 0.00 0.00 0.00 70 1015.2
20260508041908 42 353 3.5 6.1 0.00 0.00 0.00 71 1015.1
20260508041405 42 8 3.5 8.7 0.00 0.00 0.00 70 1015.3
20260508040901 42 352 2.6 3.5 0.00 0.00 0.00 72 1015.3
20260508040359 42 349 3.5 6.1 0.00 0.00 0.00 73 1015.3
20260508035857 42 17 4.3 6.1 0.00 0.01 0.01 72 1015.1
20260508035353 42 4 1.7 6.1 0.00 0.01 0.01 72 1015.1
20260508034850 42 29 1.7 7.0 0.00 0.01 0.01 73 1015.0
20260508034347 42 338 1.7 2.6 0.00 0.01 0.01 73 1015.1
20260508033844 42 333 2.6 3.5 0.00 0.01 0.01 73 1015.1
20260508033342 42 350 2.6 5.2 0.00 0.01 0.01 73 1015.1
20260508032839 42 320 1.7 2.6 0.00 0.01 0.01 73 1015.2
20260508032337 43 5 2.6 6.1 0.00 0.01 0.01 73 1015.1
20260508031833 43 21 2.6 7.0 0.00 0.01 0.01 73 1015.1
20260508031330 43 32 3.5 6.1 0.00 0.01 0.01 74 1015.0
20260508030826 43 37 5.2 7.0 0.00 0.01 0.01 74 1015.1
20260508030324 43 2 3.5 6.1 0.00 0.01 0.01 75 1014.7
20260508025820 43 0 1.7 3.5 0.00 0.01 0.01 76 1014.7
20260508025318 43 318 2.6 6.1 0.00 0.01 0.01 76 1014.8
20260508024814 43 17 2.6 3.5 0.00 0.01 0.01 76 1014.7
20260508024310 44 352 2.6 3.5 0.00 0.01 0.01 76 1014.7
20260508023808 44 333 2.6 3.5 0.00 0.01 0.01 75 1014.6
20260508023304 44 351 2.6 5.2 0.00 0.01 0.01 75 1014.6
20260508022800 44 15 1.7 5.2 0.00 0.01 0.01 75 1014.5
20260508022257 44 358 4.3 5.2 0.00 0.01 0.01 75 1014.4
20260508021754 44 11 3.5 6.1 0.00 0.01 0.01 74 1014.4
20260508021249 44 349 4.3 6.1 0.00 0.01 0.01 74 1014.3
20260508020746 45 356 6.1 8.7 0.00 0.01 0.01 73 1014.3
20260508020244 44 28 1.7 6.1 0.00 0.01 0.01 75 1014.1
20260508015741 44 5 3.5 6.1 0.00 0.01 0.01 75 1014.0
20260508015238 44 16 3.5 6.1 0.00 0.01 0.01 74 1014.0
20260508014735 45 352 3.5 7.0 0.00 0.01 0.01 73 1014.1
20260508014232 45 353 2.6 2.6 0.00 0.01 0.01 75 1014.2
20260508013727 45 24 2.6 6.1 0.00 0.01 0.01 75 1014.0
20260508013224 45 334 4.3 5.2 0.00 0.01 0.01 75 1013.9
20260508012722 45 40 3.5 7.0 0.00 0.01 0.01 75 1013.9
20260508012218 45 359 3.5 5.2 0.00 0.01 0.01 76 1013.9
20260508011717 45 357 4.3 5.2 0.00 0.01 0.01 75 1013.7
20260508011214 46 1 1.7 7.0 0.00 0.01 0.01 75 1013.6
20260508010710 45 353 4.3 7.0 0.00 0.01 0.01 75 1013.6
20260508010208 46 20 3.5 6.1 0.00 0.01 0.01 74 1013.5
20260508005706 46 349 5.2 6.1 0.00 0.01 0.01 74 1013.5
20260508005202 46 348 4.3 5.2 0.00 0.01 0.01 74 1013.6
20260508004657 46 334 1.7 5.2 0.00 0.01 0.01 74 1013.5
20260508004154 46 6 3.5 5.2 0.00 0.01 0.01 74 1013.6
20260508003651 46 359 4.3 5.2 0.00 0.01 0.01 74 1013.5
20260508003148 46 20 4.3 6.1 0.00 0.01 0.01 74 1013.3
20260508002644 46 324 5.2 7.0 0.00 0.01 0.01 76 1013.2
20260508002142 47 307 0.9 1.7 0.00 0.01 0.01 74 1013.2
20260508001637 47 315 2.6 3.5 0.00 0.01 0.01 73 1013.3
20260508001134 47 316 1.7 5.2 0.00 0.01 0.01 72 1013.3
20260508000629 48 316 2.6 5.2 0.00 0.01 0.01 71 1013.1
20260508000127 48 315 2.6 6.1 0.00 0.01 0.01 71 1013.2
20260507235624 48 341 5.2 7.0 0.00 0.01 0.01 71 1013.1
20260507235121 48 329 4.3 5.2 0.00 0.01 0.01 70 1013.2
20260507234618 48 343 6.1 7.8 0.00 0.01 0.01 70 1013.2
20260507234114 49 312 3.5 7.0 0.00 0.01 0.01 70 1013.0
20260507233611 49 348 5.2 8.7 0.00 0.01 0.01 69 1013.1
20260507233110 49 355 6.1 7.8 0.00 0.01 0.01 69 1013.0
20260507232605 50 328 5.2 6.1 0.00 0.01 0.01 68 1013.1
20260507232103 50 334 1.7 6.1 0.00 0.01 0.01 70 1012.9
20260507231559 50 296 2.6 5.2 0.00 0.01 0.01 69 1012.7
20260507231057 50 336 4.3 7.8 0.00 0.01 0.01 70 1013.0
20260507230553 51 349 4.3 7.0 0.00 0.01 0.01 68 1012.9
20260507230050 53 328 2.6 7.0 0.00 0.01 0.01 66 1012.6
20260507225544 52 34 2.6 6.1 0.00 0.01 0.01 68 1012.7
20260507225041 52 38 3.5 7.0 0.00 0.01 0.01 69 1012.9
20260507224537 52 355 4.3 7.0 0.00 0.01 0.01 69 1012.9
20260507224034 51 347 5.2 7.8 0.00 0.01 0.01 68 1012.7
20260507223530 52 315 5.2 7.8 0.00 0.01 0.01 69 1012.6
20260507223027 53 341 7.0 8.7 0.00 0.01 0.01 67 1012.4
20260507222524 54 338 5.2 7.8 0.00 0.01 0.01 67 1012.4
20260507222020 53 294 6.1 15.6 0.00 0.01 0.01 64 1012.3
20260507221517 53 16 5.2 9.6 0.00 0.01 0.01 66 1012.4
20260507221014 52 330 7.8 13.9 0.00 0.01 0.01 65 1012.4
20260507220511 53 313 5.2 12.2 0.00 0.01 0.01 67 1012.3
20260507220008 53 322 3.5 7.8 0.00 0.01 0.01 70 1012.2
20260507215504 52 350 5.2 7.8 0.00 0.01 0.01 72 1012.2
20260507215003 50 10 7.0 9.6 0.00 0.01 0.01 73 1012.2
20260507214459 50 297 2.6 9.6 0.00 0.01 0.01 74 1012.3
20260507213955 51 320 6.1 7.0 0.00 0.01 0.01 73 1012.3
20260507213452 51 344 4.3 7.8 0.00 0.01 0.01 72 1012.3
20260507212948 50 333 4.3 7.0 0.00 0.01 0.01 73 1012.2
20260507212444 50 301 6.1 7.0 0.00 0.01 0.01 73 1012.0
20260507211942 50 286 6.1 8.7 0.00 0.01 0.01 75 1012.1
20260507211438 49 13 5.2 7.8 0.00 0.01 0.01 75 1012.0
20260507210935 50 340 2.6 7.0 0.00 0.01 0.01 75 1012.0
20260507210432 50 17 6.1 8.7 0.00 0.01 0.01 75 1011.9
20260507205928 50 326 5.2 7.8 0.00 0.01 0.01 76 1011.9
20260507205426 50 347 3.5 8.7 0.00 0.01 0.01 74 1011.8
20260507204922 51 84 1.7 5.2 0.00 0.01 0.01 76 1011.9
20260507204418 50 68 2.6 5.2 0.00 0.01 0.01 76 1011.9
20260507203916 50 357 4.3 5.2 0.00 0.01 0.01 75 1011.9
20260507203414 51 3 5.2 7.8 0.00 0.01 0.01 72 1011.8
20260507202910 51 300 6.1 9.6 0.00 0.01 0.01 70 1011.9
20260507202406 53 298 10.4 13.9 0.00 0.01 0.01 70 1011.9
20260507201902 53 298 10.4 13.9 0.00 0.01 0.01 70 1011.9
20260507201358 52 301 6.1 11.3 0.00 0.01 0.01 71 1011.8
20260507200854 52 65 4.3 6.1 0.00 0.01 0.01 77 1011.9
20260507200350 50 27 5.2 9.6 0.00 0.01 0.01 78 1012.3
20260507195846 49 323 3.5 6.1 0.00 0.01 0.01 78 1012.3
20260507195344 50 313 4.3 7.8 0.00 0.01 0.01 77 1012.3
20260507194841 51 294 7.8 13.0 0.00 0.01 0.01 76 1012.1
20260507194337 50 345 1.7 7.8 0.00 0.01 0.01 79 1012.3
20260507193834 49 348 3.5 7.8 0.00 0.01 0.01 79 1012.2
20260507193331 49 1 7.8 9.6 0.00 0.01 0.01 80 1012.3
20260507192827 49 326 4.3 7.8 0.00 0.01 0.01 78 1012.4
20260507192324 49 322 7.8 9.6 0.00 0.01 0.01 79 1012.4
20260507191820 49 2 7.0 11.3 0.00 0.01 0.01 79 1012.4
20260507191316 50 25 3.5 8.7 0.00 0.01 0.01 78 1012.4
20260507190813 49 11 1.7 5.2 0.00 0.01 0.01 79 1012.4
20260507190312 49 302 5.2 7.0 0.00 0.01 0.01 78 1012.5
20260507185810 50 355 7.8 11.3 0.00 0.01 0.01 74 1012.5
20260507185306 51 289 7.0 9.6 0.00 0.01 0.01 73 1012.6
20260507184805 52 329 9.6 13.0 0.00 0.01 0.01 75 1012.9
20260507184303 53 293 5.2 7.8 0.00 0.01 0.01 77 1012.6
20260507183759 51 343 4.3 7.8 0.00 0.01 0.01 75 1012.6
20260507183256 51 321 5.2 11.3 0.00 0.01 0.01 73 1012.7
20260507182754 51 337 3.5 7.0 0.00 0.01 0.01 76 1012.6
20260507182253 51 20 5.2 6.1 0.00 0.01 0.01 76 1012.4
20260507181751 53 344 5.2 9.6 0.00 0.01 0.01 73 1012.5
20260507181247 52 349 8.7 9.6 0.00 0.01 0.01 73 1012.3
20260507180744 52 289 4.3 7.8 0.00 0.01 0.01 72 1012.3
20260507180241 50 359 2.6 7.8 0.00 0.01 0.01 78 1012.5
20260507175736 50 17 4.3 7.8 0.00 0.01 0.01 75 1012.6
20260507175233 49 322 3.5 6.1 0.00 0.01 0.01 79 1012.6
20260507174731 48 351 3.5 7.8 0.00 0.01 0.01 79 1012.7
20260507174228 48 309 6.1 9.6 0.00 0.01 0.01 77 1013.1
20260507173726 49 348 4.3 8.7 0.00 0.01 0.01 75 1012.7
20260507173222 49 339 7.0 8.7 0.00 0.01 0.01 75 1012.6
20260507172719 49 0 3.5 7.0 0.00 0.01 0.01 77 1012.6
20260507172216 49 345 7.8 9.6 0.00 0.01 0.01 76 1012.6
20260507171716 48 291 3.5 7.0 0.00 0.01 0.01 77 1012.6
20260507171214 48 39 3.5 8.7 0.00 0.01 0.01 76 1012.6
20260507170710 48 297 7.0 12.2 0.00 0.01 0.01 76 1012.6
20260507170208 48 11 5.2 7.0 0.00 0.01 0.01 77 1012.7
20260507165703 48 352 5.2 8.7 0.00 0.01 0.01 79 1012.7
20260507165159 48 348 1.7 6.1 0.00 0.01 0.01 78 1012.9
20260507164655 49 350 5.2 9.6 0.00 0.01 0.01 76 1013.0
20260507164153 49 336 3.5 7.8 0.00 0.01 0.01 78 1013.0
20260507163650 50 310 5.2 7.8 0.00 0.01 0.01 77 1012.9
20260507163148 50 345 2.6 6.1 0.00 0.01 0.01 77 1013.0
20260507162643 49 355 2.6 6.1 0.00 0.01 0.01 80 1013.0
20260507162140 48 352 3.5 6.1 0.00 0.01 0.01 82 1013.0
20260507161636 48 64 3.5 7.8 0.00 0.01 0.01 81 1013.0
20260507161133 47 37 2.6 6.1 0.00 0.01 0.01 82 1012.9
20260507160629 47 323 4.3 7.0 0.00 0.01 0.01 82 1013.0
20260507160126 47 118 1.7 2.6 0.00 0.01 0.01 84 1013.0
20260507155621 47 17 0.9 7.0 0.00 0.01 0.01 83 1013.2
20260507155118 46 42 3.5 7.0 0.00 0.01 0.01 83 1013.0
20260507154615 47 55 3.5 6.1 0.00 0.01 0.01 83 1013.0
20260507154112 47 32 3.5 3.5 0.00 0.01 0.01 87 1013.0
20260507153609 45 52 1.7 3.5 0.00 0.01 0.01 85 1013.2
20260507153106 45 0 2.6 7.0 0.00 0.01 0.01 85 1013.2
20260507152602 45 20 4.3 7.0 0.00 0.01 0.01 85 1013.0
20260507152058 45 51 1.7 7.8 0.00 0.01 0.01 83 1013.0
20260507151554 44 352 0.9 7.0 0.00 0.01 0.01 83 1013.2
20260507151051 45 320 5.2 7.0 0.00 0.01 0.01 81 1013.2
20260507150548 45 350 4.3 8.7 0.00 0.01 0.01 85 1013.0
20260507150045 45 356 2.6 6.1 0.00 0.01 0.01 86 1013.3
20260507145540 45 50 6.1 8.7 0.00 0.01 0.01 83 1013.0
20260507145038 44 68 6.1 8.7 0.00 0.01 0.01 83 1013.1
20260507144534 44 72 2.6 11.3 0.00 0.01 0.01 87 1013.0
20260507144032 44 78 2.6 8.7 0.00 0.01 0.01 85 1013.0
20260507143528 44 25 2.6 7.0 0.00 0.01 0.01 87 1013.1
20260507143026 44 58 5.2 9.6 0.00 0.01 0.01 90 1013.1
20260507142522 43 59 3.5 8.7 0.00 0.01 0.01 91 1013.1
20260507142019 43 27 5.2 8.7 0.00 0.01 0.01 91 1013.0
20260507141515 42 17 4.3 6.1 0.00 0.01 0.01 91 1013.1
20260507141011 42 83 4.3 8.7 0.00 0.01 0.01 91 1013.2
20260507140508 42 25 4.3 8.7 0.00 0.01 0.01 91 1013.3
20260507140006 42 330 6.1 8.7 0.00 0.01 0.01 93 1013.2
20260507135502 42 63 7.0 13.0 0.00 0.01 0.01 92 1013.3
20260507134959 42 53 6.1 8.7 0.00 0.01 0.01 94 1013.1
20260507134455 42 57 6.1 7.8 0.00 0.01 0.01 95 1013.3
20260507133952 42 72 3.5 6.1 0.00 0.01 0.01 95 1013.4
20260507133448 42 58 6.1 9.6 0.00 0.01 0.01 95 1013.3
20260507132947 42 49 4.3 11.3 0.00 0.01 0.01 96 1013.3
20260507132442 42 61 3.5 5.2 0.00 0.01 0.01 96 1013.5
20260507131938 42 71 3.5 7.0 0.00 0.01 0.01 97 1013.3
20260507131436 42 59 6.1 8.7 0.00 0.01 0.01 97 1013.4
20260507130933 42 51 4.3 7.0 0.00 0.01 0.01 98 1013.5
20260507130430 41 24 7.0 11.3 0.00 0.01 0.01 97 1013.4
20260507125929 42 24 6.1 7.0 0.00 0.01 0.01 98 1013.6
20260507125426 42 53 5.2 8.7 0.00 0.01 0.01 98 1013.4
20260507124924 42 22 3.5 6.1 0.00 0.01 0.01 98 1013.6
20260507124419 42 33 7.0 7.8 0.00 0.01 0.01 97 1013.6
20260507123918 42 56 5.2 8.7 0.00 0.01 0.01 97 1013.6
20260507123415 41 12 4.3 9.6 0.00 0.01 0.01 98 1013.7
20260507122911 41 30 4.3 8.7 0.00 0.01 0.01 98 1013.9
20260507122406 42 27 5.2 8.7 0.00 0.01 0.01 99 1013.5